Miscellaneous Local Product
Issued by NWS Hastings, NE

Home | Current Version | Previous Version | Text Only | Print | Product List | Glossary On
Versions: 1 2 3 4 5 6 7 8 9 10 11 12 13 14 15 16 17 18 19 20 21 22 23 24 25 26 27 28 29 30 31 32 33 34 35 36 37 38 39 40 41 42 43 44 45 46 47 48 49 50
508
AXUS43 KGID 251402
MISGRI

GID CWA HOURLY WEATHER ROUNDUP
NATIONAL WEATHER SERVICE HASTINGS NE
900 AM CDT MON JUL 25 2016

NOTE: "FAIR" INDICATES FEW OR NO CLOUDS BELOW 12,000 FEET WITH NO
SIGNIFICANT WEATHER AND/OR OBSTRUCTIONS TO VISIBILITY.

...SOUTH CENTRAL NEBRASKA...

CITY           SKY/WX    TMP DP  RH WIND       PRES   REMARKS
GRAND ISLAND   CLOUDY    70  63  78 VRB5      30.19R
HASTINGS       CLOUDY    71  62  73 E9        30.18S
KEARNEY        CLOUDY    70  63  78 E7        30.19S
ORD            CLOUDY    68  60  75 S3        30.17R
YORK           CLOUDY    70  64  83 S5        30.17R
AURORA         MOSUNNY   69  66  90 E3        30.18R
LEXINGTON      CLOUDY    70  63  78 E6        30.19R
HOLDREGE       CLOUDY    69  64  81 E9        30.18R
HEBRON         CLOUDY    70  65  84 E3        30.15R

...NEBRASKA PANHANDLE...

CITY           SKY/WX    TMP DP  RH WIND       PRES   REMARKS
CHADRON        SUNNY     74  55  51 S16       30.13S
ALLIANCE       SUNNY     66  61  84 S12       30.18S
SCOTTSBLUFF    SUNNY     66  56  70 SE12      30.18R
SIDNEY         SUNNY     67  57  70 SE14      30.21F

...WESTERN AND NORTH CENTRAL NEBRASKA...

CITY           SKY/WX    TMP DP  RH WIND       PRES   REMARKS
VALENTINE      SUNNY     73  59  61 S12       30.16R
AINSWORTH      SUNNY     73  54  51 S8        30.17R
ONEILL         SUNNY     73  57  56 SE5       30.17R
BROKEN BOW     MOSUNNY   67  60  78 SE8       30.19R
IMPERIAL       SUNNY     67  61  81 E5        30.20R
NORTH PLATTE   SUNNY     68  64  87 E8        30.19R
MCCOOK         SUNNY     70  63  78 E9        30.17R

...EASTERN NEBRASKA...

CITY           SKY/WX    TMP DP  RH WIND       PRES   REMARKS
NORFOLK        SUNNY     72  61  68 E5        30.15R
SO SIOUX CITY  SUNNY     72  65  78 CALM      30.13S
TEKAMAH        MOSUNNY   73  65  75 VRB5      30.12S
COLUMBUS       CLOUDY    68  57  68 S3G91     30.16R
ALBION         CLOUDY    67  59  76 CALM      30.18R
OMAHA EPPLEY   MOSUNNY   72  65  78 NW3       30.11S
OFFUTT AFB     LGT RAIN  73  66  78 E5        30.11S
MILLARD        CLOUDY    75  65  69 SE5       30.12R
LINCOLN        CLOUDY    73  64  73 SE7       30.15R
NEBRASKA CITY  CLOUDY    70  68  91 CALM      30.13R
BEATRICE       CLOUDY    70  65  85 SE3       30.14R
FALLS CITY     CLOUDY    71  67  87 NE3       30.10R

...NORTHERN KANSAS...

CITY           SKY/WX    TMP DP  RH WIND       PRES   REMARKS
GOODLAND       SUNNY     68  60  75 CALM      30.19S
HILL CITY      CLOUDY    71  65  81 NE13      30.15R
NORTON         SUNNY     73  57  56 E15       30.15S
SMITH CENTER   PTSUNNY   66  64  94 E8        30.15S
BELOIT         CLOUDY    66  66 100 CALM      30.13R
HAYS           MOSUNNY   70  61  73 E18       30.11R
RUSSELL        CLOUDY    68  67  96 E16       30.11R
CONCORDIA      RAIN      68  66  93 N3        30.14R FOG
SALINA         LGT RAIN  72  69  90 E10       30.09F
TOPEKA         LGT RAIN  72  69  90 W5        30.10R



USA.gov is the U.S. government's official web portal to all federal, state and local government web resources and services.